Terminal Aerodrome Forecast
Issued by NWS Chicago, IL

Home | Current Version | Previous Version | Graphics & Text | Print | Product List | Glossary On
Versions: 1 2 3 4 5 6 7 8 9 10 11 12 13 14 15 16 17 18 19 20 21 22 23 24 25
289
FTUS43 KLOT 240257 AAA
TAFRFD
TAF AMD
KRFD 240257Z 2403/2424 13005KT P6SM FEW250
     FM241400 19007KT P6SM FEW150
     FM241900 18010KT P6SM SCT050 SCT150=

USA.gov is the U.S. government's official web portal to all federal, state and local government web resources and services.